Dauntless Aviation
Airports North America United States Florida
0J8

FLYING TEN AIRPORT

ARCHER, FL, USA

Airport Info
Suggest Updated Information for this Airport

Location

Latitude / Longitude: 29°37'4"N / 82°30'31"W
  29°37.0813'N / 82°30.5232'W
  29.6180 / -82.5087
Elevation: 85 ft. (estimated)
Variation: 02W (1985)
From city: 05 miles N of ARCHER, FL

Operations

Facility use: Open to the public
Sectional chart: JACKSONVILLE
Control tower: no
Boundary ARTCC: JACKSONVILLE
FSS: GAINESVILLE [1-800-WX-BRIEF]
NOTAMs facility: GNV (NOTAM-D service available)
Segmented circle: no
Lights: PHONE REQ
Landing fee: no

Communications

CTAF: 122.900

Nearby radio navigation aids

VOR radial/distance VOR name Freq Var
GNV 250oT/13.1 GATORS VORTAC 116.20 04W
CTY 88oT/28.2 CROSS CITY VORTAC 112.00 02W
OCF 331oT/30.3 OCALA VORTAC 113.70 00E
 
NDB name Hdg/Dist Freq Var ID
WYNDS 260oT/17.8 269 04W GN
LAKE CITY 174oT/34.3 204 03W LCQ
PALATKA 267oT/36.4 243 05W IAK

Services

Fuel available: 100LL
Bottled oxygen: NONE
Bulk oxygen: NONE

Runway Information

Runway 18/36

Dimensions: 3200 x 170 ft.
Surface: GRASS; SOD,FAIR CONDITION,NO SPECIAL SURFACE TREATMENT
Edge lights: NON-STANDARD LIGHTING SYSTEM
 
Runway 18
Runway 36
Traffic pattern: left left
 

Operational Statistics

Annual operations: 30000
Local: 20000
Itinerant: 10000

Additional Remarks

Instrument Procedures

No published instrument procedures available
Topographic chart at:
Satellite photo at:
Airport distance calculator
From:
Weather Reports

METAR

KGNV
12.7nm NE
KGNV 231653Z 13004KT 10SM FEW046 BKN070 BKN080 28/17 A2985 RMK AO2 SLP105 T02780167
KX60
16.2nm SE
KX60 231735Z AUTO 20004KT 10SM CLR 30/18 A2983 RMK A01
K42J
27.7nm NE
K42J 231735Z AUTO 23005KT 10SM FEW038 FEW048 FEW085 29/14 A2984 RMK AO1 TSNO
KCTY
30.9nm W
KCTY 231735Z AUTO 20008KT 10SM SCT040 SCT047 OVC070 28/18 A2984 RMK AO2
KOCF
31.1nm SE
KOCF 231650Z 14004KT 10SM SCT055 28/17 A2986
KLCQ
34.2nm NW
KLCQ 231735Z AUTO 23005G15KT 10SM BKN048 BKN075 28/17 A2983 RMK AO2

TAF

KGNV
12.7nm NE
KGNV 231120Z 2312/2412 20003KT P6SM BKN040 BKN250 FM231400 21007KT P6SM SCT040 BKN250 FM231900 18008KT P6SM VCTS BKN040CB FM240000 21006KT P6SM VCSH BKN035
Safelog

 

Dauntless Aviation

© 2007-2017 Dauntless Aviation, all rights reserved
Information provided via PilotNav comes from a variety of official and unofficial data sources. As errors are possible, do not use PilotNav for primary flight planning purposes. Verify any information that you receive via PilotNav with current and canonical charts and other official documents. The material in this database is subject to database copyrights held by Dauntless Aviation and may not be copied without the express permission of Dauntless Aviation - licenses for use of part of all of this data are available for purchase; enquire via the Dauntless Aviation helpdesk. A number of mechanisms and markers exist in the database to protect against and identify infringement / copyright. Automated queries against this website are stictly prohibited, and all activity is logged and analyzed.